[[{"header":{"parameterUnit":"m.s-1","parameterCategory":1,"la1":30.2991,"la2":30.254,"lo1":-89.0895,"lo2":-89.0444,"dy":0.0017,"dx":0.0017,"nx":28,"ny":28,"refTime":"2025-11-30T09:00:00:Z","depth":0,"parameterNumber":2,"parameterNumberName":"U-component_of_WINDS"},"data":[0,0,0,0,0,0,0,0,0,0,0,0,0,0,0,0,0,0,0,0,0,0,0,0,0,0,0,0,0,0,0,0,0,0,0,0,0,0,0,0,0,0,0,0,0,0,0,0,0,0,0,0,0,0,0,0,0,0,-5.8455,-5.8456,0,-5.8613,-5.8615,-5.8617,-5.8561,-5.8558,-5.8554,-5.8551,-5.8708,-5.8716,-5.8723,0,0,0,0,0,0,0,0,0,0,0,0,0,-5.81,-5.8107,-5.8454,-5.8456,-5.8458,-5.8613,-5.8615,-5.8617,-5.8562,-5.8558,-5.8553,-5.8549,-5.8706,-5.8715,-5.8724,0,0,0,0,0,0,0,0,0,0,0,0,0,-5.8256,-5.8109,-5.8454,-5.845,-5.8451,-5.8612,-5.8615,-5.8618,-5.8563,-5.8557,-5.8552,-5.8547,-5.8703,-5.8714,-5.8725,-5.8899,0,0,-5.8759,-5.8764,0,0,0,0,0,0,0,0,-5.8247,-5.8269,-5.8448,-5.845,-5.8452,-5.8562,-5.8548,-5.8712,-5.8564,-5.852,-5.8551,-5.8545,-5.8664,-5.8678,-5.8719,-5.8906,-5.8913,-5.876,-5.8767,-5.8772,-5.8775,0,0,0,0,0,0,0,-5.8236,-5.8261,-5.8517,-5.8451,-5.8453,-5.8438,-5.8455,-5.8579,-5.8619,-5.8523,-5.852,-5.854,-5.8664,-5.8708,-5.8722,-5.8915,-5.876,-5.877,-5.8777,-5.8781,-5.9252,-5.9258,0,0,0,0,0,0,-5.8225,-5.8253,-5.8512,-5.8522,-5.8334,-5.8449,-5.8467,-5.8532,-5.8618,-5.8626,-5.8544,-5.8536,-5.8692,-5.8709,-5.8727,-5.8934,-5.8772,-5.8782,-5.8788,-5.9246,-5.9253,-5.926,0,0,0,0,0,0,-5.8218,-5.8249,-5.8506,-5.8387,-5.8418,-5.8461,-5.8534,-5.8538,-5.8582,-5.8633,-5.864,-5.8582,-5.8688,-5.8712,-5.8857,-5.8939,-5.8787,-5.8797,-5.9239,-5.9248,-5.9256,-5.9351,0,0,0,0,0,0,-5.8208,-5.8246,-5.8314,-5.8389,-5.8425,-5.8633,-5.8539,-5.8545,-5.8602,-5.8594,-5.8671,-5.8679,-5.8686,-5.884,-5.8868,-5.8952,-5.8806,-5.9232,-5.9243,-5.9254,-5.9341,-5.9362,-5.938,0,0,0,0,0,-5.8195,-5.8333,-5.8317,-5.8349,-5.851,-5.8638,-5.8659,-5.8666,-5.8609,-5.8676,-5.8709,-5.8676,-5.8927,-5.8856,-5.8886,-5.8975,-5.9227,-5.924,-5.9253,-5.9332,-5.9358,-5.938,0,0,0,0,0,0,-5.8264,-5.8343,-5.8326,-5.8493,-5.856,-5.8629,-5.8713,-5.8693,-5.8776,-5.8765,-5.8769,-5.8787,-5.8935,-5.897,-5.8889,-5.9147,-5.9068,-5.9088,-5.9118,-5.9143,-5.9162,-5.9148,-5.8815,0,0,0,0,0,-5.83,-5.8399,-5.8462,-5.8603,-5.8637,-5.867,-5.8726,-5.8726,-5.8795,-5.8822,-5.8866,-5.8932,-5.9026,-5.9087,-5.9176,-5.9348,-5.9362,-5.9424,-5.9443,-5.9459,-5.9474,-5.9565,-5.9592,-5.9303,-5.9302,-5.9302,0,0,-5.8372,-5.8427,-5.8489,-5.8618,-5.867,-5.877,-5.8694,-5.8804,-5.8878,-5.8838,-5.8977,-5.9012,-5.9087,-5.9245,-5.9317,-5.9279,-5.9559,-5.9476,-5.9488,-5.9495,-5.9581,-5.9609,-5.9633,-5.9311,-5.931,-5.9308,0,0,-5.8555,-5.8608,-5.873,-5.8785,-5.8865,-5.8886,-5.8916,-5.8989,-5.9011,-5.9151,-5.9123,-5.9212,-5.9374,-5.9427,-5.9476,-5.9682,-5.9653,-5.9711,-5.9812,-5.99,-5.9923,-5.9943,-6.0013,-6.0038,-5.9728,-5.9728,-5.9728,0,-5.8633,-5.8785,-5.8795,-5.8908,-5.8964,-5.8936,-5.9059,-5.9111,-5.9215,-5.9254,-5.9211,-5.9413,-5.9462,-5.9631,-5.9682,-5.9724,-5.9755,-5.9699,-5.992,-5.994,-5.9959,-6.0025,-6.0052,-5.9734,-5.9733,-5.9733,-5.9732,0,-5.8877,-5.8983,-5.9072,-5.9175,-5.9243,-5.936,-5.9385,-5.9452,-5.9448,-5.9474,-5.9616,-5.9674,-5.9774,-5.9815,-5.9812,-5.9984,-5.9958,-5.9918,-5.9837,-5.9992,-6.0054,-6.008,-5.9743,-5.9741,-5.9739,-5.9737,0,0,-5.9102,-5.9212,-5.9244,-5.929,-5.9378,-5.9459,-5.9575,-5.9674,-5.973,-5.9805,-5.99,-6.0039,-6.0003,-6.0058,-6.0061,-6.0139,-6.0294,-6.0089,-6.0091,-6.0121,-6.0484,-6.051,-6.0539,-6.0279,-6.0284,-6.0288,-6.0476,0,-5.9288,-5.9492,-5.9505,-5.9689,-5.9786,-5.9763,-5.9864,-5.9928,-5.9956,-6.0041,-6.0072,-6.0169,-6.0116,-6.0148,-6.0226,-6.0259,-6.0366,-6.0247,-6.0363,-6.0367,-6.034,-6.0573,-6.06,-6.0775,-6.0501,-6.0506,-6.0509,0,-5.9531,-5.9614,-5.9808,-5.9882,-5.9923,-6.0013,-6.0105,-6.0188,-6.0261,-6.0275,-6.0339,-6.0331,-6.0448,-6.0369,-6.0529,-6.0447,-6.0497,-6.0521,-6.0528,-6.0534,-6.0443,-6.058,-6.0832,-6.0856,-6.0548,-6.0545,-6.0542,0,-5.967,-5.9831,-5.9967,-6.0008,-6.0099,-6.0163,-6.0204,-6.0271,-6.033,-6.0411,-6.0448,-6.0542,-6.0592,-6.0663,-6.068,-6.0622,-6.0839,-6.0762,-6.0852,-6.0851,-6.0893,-6.0889,-6.1151,-6.0935,-6.0935,-6.0934,-6.0933,0,-5.9873,-5.9991,-6.0031,-6.0114,-6.0246,-6.0261,-6.039,-6.0427,-6.0488,-6.0576,-6.0564,-6.0647,-6.0667,-6.0754,-6.0769,-6.0897,-6.0921,-6.0934,-6.0935,-6.0932,-6.0929,-6.096,-6.0946,-6.0941,-6.0939,-6.0938,-6.0937,0,-6.0047,-6.008,-6.0226,-6.0302,-6.0324,-6.0417,-6.048,-6.056,-6.0588,-6.07,-6.0728,-6.0771,-6.0873,-6.0899,-6.102,-6.103,-6.118,-6.1173,-6.1155,-6.1153,-6.124,-6.1229,-6.1525,-6.1563,-6.1327,-6.133,-6.1332,0,-6.0172,-6.0262,-6.0349,-6.0408,-6.0452,-6.0548,-6.0608,-6.0628,-6.0691,-6.0781,-6.0849,-6.095,-6.1031,-6.1195,-6.1236,-6.1328,-6.132,-6.1417,-6.1333,-6.1326,-6.1315,-6.1307,-6.1315,-6.1431,-6.1433,-6.1435,-6.1437,0,-6.0388,-6.04,-6.0488,-6.0583,-6.0656,-6.0731,-6.0803,-6.0852,-6.0881,-6.0953,-6.1058,-6.1121,-6.1246,-6.1345,-6.1439,-6.1479,-6.1462,-6.1465,-6.1489,-6.1483,-6.1468,-6.1473,-6.1193,-6.1456,-6.1454,-6.1453,-6.1452,-6.1451,-6.0538,-6.0616,-6.0689,-6.0788,-6.0845,-6.0913,-6.0991,-6.103,-6.1118,-6.1222,-6.1229,-6.1342,-6.1412,-6.1537,-6.1583,-6.167,-6.164,-6.1677,-6.1686,-6.1693,-6.1698,-6.146,-6.1688,-6.1688,-6.1687,-6.1687,-6.1687,0,-6.0748,-6.0795,-6.0887,-6.0988,-6.1066,-6.1048,-6.1127,-6.1192,-6.1292,-6.1361,-6.1441,-6.1561,-6.1658,-6.1709,-6.1804,-6.1864,-6.1859,-6.1888,-6.1881,-6.189,-6.1722,-6.1689,-6.1891,-6.1891,-6.1891,-6.1891,-6.1891,-6.1891,-6.0867,-6.0998,-6.1019,-6.1179,-6.1225,-6.1336,-6.1382,-6.1444,-6.1499,-6.1634,-6.1714,-6.1748,-6.1809,-6.1909,-6.1997,-6.2009,-6.2042,-6.2075,-6.2083,-6.1923,-6.1902,-6.1882,-6.185,-6.2083,-6.2084,-6.2243,-6.2244,-6.2245]},{"header":{"parameterUnit":"m.s-1","parameterCategory":1,"la1":30.2991,"la2":30.254,"lo1":-89.0895,"lo2":-89.0444,"dy":0.0017,"dx":0.0017,"nx":28,"ny":28,"refTime":"2025-11-30T09:00:00:Z","depth":0,"parameterNumber":3,"parameterNumberName":"V-component_of_WINDS"},"data":[0,0,0,0,0,0,0,0,0,0,0,0,0,0,0,0,0,0,0,0,0,0,0,0,0,0,0,0,0,0,0,0,0,0,0,0,0,0,0,0,0,0,0,0,0,0,0,0,0,0,0,0,0,0,0,0,0,0,0.4814,0.4813,0,0.4764,0.4763,0.4763,0.474,0.474,0.474,0.4741,0.4684,0.4683,0.4681,0,0,0,0,0,0,0,0,0,0,0,0,0,0.4885,0.4884,0.4814,0.4813,0.4812,0.4764,0.4763,0.4763,0.474,0.474,0.474,0.4741,0.4685,0.4683,0.4681,0,0,0,0,0,0,0,0,0,0,0,0,0,0.4846,0.4884,0.4814,0.4796,0.4793,0.4764,0.4763,0.4762,0.474,0.474,0.474,0.4741,0.4685,0.4683,0.4681,0.4664,0,0,0.4673,0.4672,0,0,0,0,0,0,0,0,0.4849,0.4844,0.4799,0.4797,0.4794,0.4759,0.4768,0.4729,0.474,0.476,0.4741,0.4741,0.4708,0.4704,0.4694,0.4661,0.4659,0.4673,0.4672,0.4671,0.467,0,0,0,0,0,0,0,0.4851,0.4846,0.4794,0.4798,0.4795,0.4789,0.4783,0.476,0.4734,0.4759,0.4757,0.4752,0.4707,0.4697,0.4693,0.4658,0.4673,0.4671,0.467,0.4669,0.461,0.461,0,0,0,0,0,0,0.4858,0.4848,0.4795,0.4792,0.4823,0.4787,0.4781,0.477,0.4734,0.4729,0.4751,0.4751,0.4701,0.4696,0.4691,0.467,0.4671,0.4669,0.4667,0.461,0.461,0.4609,0,0,0,0,0,0,0.4859,0.4853,0.4797,0.482,0.4812,0.4786,0.4773,0.4769,0.4758,0.4729,0.4724,0.4746,0.4701,0.4694,0.4671,0.4667,0.4668,0.4665,0.461,0.461,0.461,0.4627,0,0,0,0,0,0,0.4861,0.4854,0.4848,0.482,0.4811,0.478,0.4773,0.4768,0.4755,0.4754,0.4723,0.4717,0.47,0.4675,0.4669,0.4664,0.4664,0.461,0.461,0.461,0.4627,0.4627,0.4628,0,0,0,0,0,0.4864,0.4854,0.4848,0.4842,0.4804,0.478,0.4775,0.4757,0.4755,0.4748,0.473,0.4718,0.4669,0.4673,0.4666,0.466,0.461,0.461,0.461,0.4626,0.4627,0.4628,0,0,0,0,0,0,0.488,0.485,0.4843,0.4823,0.4805,0.4776,0.4767,0.4758,0.4738,0.4737,0.4714,0.4707,0.4686,0.4671,0.4676,0.4643,0.4639,0.4637,0.4654,0.4654,0.4655,0.4659,0.4662,0,0,0,0,0,0.4882,0.4866,0.484,0.4825,0.4816,0.4794,0.4782,0.4771,0.4749,0.4741,0.472,0.4699,0.4679,0.4666,0.4645,0.4625,0.4617,0.4617,0.4618,0.4619,0.4617,0.4606,0.4605,0.4608,0.4608,0.4608,0,0,0.4884,0.4865,0.4857,0.4828,0.4812,0.4796,0.4787,0.477,0.4757,0.4737,0.4716,0.47,0.4674,0.4653,0.4643,0.464,0.4615,0.4618,0.4619,0.4617,0.4605,0.4605,0.4605,0.4608,0.4608,0.4608,0,0,0.488,0.4864,0.4851,0.4836,0.4813,0.4798,0.4795,0.4768,0.4758,0.4736,0.4722,0.4705,0.4671,0.4654,0.464,0.4632,0.4621,0.4626,0.4629,0.4618,0.4618,0.4618,0.4615,0.4614,0.4624,0.4624,0.4624,0,0.4885,0.4861,0.4845,0.4829,0.4817,0.4801,0.4787,0.4772,0.4743,0.4734,0.4732,0.4689,0.4671,0.4645,0.4644,0.4633,0.4628,0.4629,0.462,0.4619,0.4618,0.4615,0.4614,0.4625,0.4625,0.4625,0.4625,0,0.4869,0.4853,0.4845,0.482,0.4806,0.4791,0.4771,0.476,0.4749,0.4734,0.4712,0.469,0.4666,0.4659,0.4647,0.4632,0.4631,0.4624,0.462,0.4619,0.4616,0.4615,0.4626,0.4626,0.4626,0.4626,0,0,0.4872,0.484,0.4837,0.4826,0.48,0.4787,0.4771,0.4749,0.4739,0.472,0.4706,0.4678,0.4672,0.4657,0.4644,0.4634,0.463,0.4629,0.4628,0.463,0.4612,0.4617,0.4616,0.4622,0.4622,0.4622,0.4614,0,0.4865,0.4838,0.4823,0.4802,0.4787,0.4772,0.4759,0.4741,0.4727,0.4711,0.4695,0.4676,0.467,0.4661,0.4651,0.4632,0.4626,0.4633,0.4608,0.4607,0.4615,0.4614,0.4619,0.4613,0.4612,0.4612,0.4612,0,0.4853,0.4836,0.4814,0.4791,0.4784,0.4773,0.4752,0.4737,0.4716,0.4707,0.4692,0.4679,0.466,0.4658,0.4632,0.4637,0.4626,0.4616,0.4615,0.4612,0.4609,0.4611,0.461,0.4609,0.461,0.461,0.461,0,0.4858,0.483,0.4813,0.4804,0.4777,0.4769,0.4757,0.4737,0.4725,0.4706,0.4698,0.4677,0.4665,0.4649,0.463,0.463,0.4606,0.4602,0.4597,0.4597,0.4592,0.4593,0.459,0.4585,0.4585,0.4585,0.4585,0,0.4851,0.4838,0.4816,0.4805,0.479,0.4773,0.4758,0.4745,0.4727,0.4713,0.4699,0.4686,0.4662,0.4646,0.4631,0.4612,0.4607,0.4598,0.4594,0.4599,0.46,0.4591,0.4591,0.4585,0.4585,0.4585,0.4585,0,0.4854,0.4839,0.482,0.4797,0.479,0.478,0.476,0.4749,0.4735,0.4718,0.4712,0.469,0.467,0.4651,0.4623,0.4613,0.4594,0.4589,0.4602,0.46,0.4596,0.4597,0.4587,0.4585,0.4583,0.4583,0.4583,0,0.4851,0.4841,0.4818,0.4808,0.4798,0.4782,0.4771,0.4754,0.4742,0.4719,0.471,0.469,0.4673,0.4642,0.4622,0.4601,0.4595,0.4593,0.4592,0.4598,0.4595,0.4596,0.4595,0.4594,0.4594,0.4594,0.4594,0,0.4847,0.484,0.4825,0.4808,0.4796,0.4781,0.4765,0.4758,0.4737,0.4725,0.4706,0.4693,0.4666,0.4646,0.4623,0.4609,0.4598,0.4595,0.4593,0.4598,0.4606,0.4602,0.4604,0.4595,0.4595,0.4595,0.4595,0.4595,0.4846,0.4838,0.482,0.4804,0.4791,0.4778,0.4767,0.4752,0.4737,0.4715,0.4706,0.4687,0.4666,0.4635,0.4621,0.4605,0.4602,0.4599,0.4598,0.4597,0.4599,0.4609,0.4601,0.4601,0.4601,0.4601,0.4601,0,0.4842,0.4831,0.4816,0.4796,0.4784,0.4777,0.476,0.4749,0.4733,0.4716,0.4701,0.4679,0.466,0.4639,0.4618,0.4609,0.4604,0.4604,0.4605,0.4602,0.4603,0.4607,0.4609,0.4609,0.4609,0.4609,0.4609,0.4609,0.4838,0.4823,0.4814,0.4792,0.4781,0.4764,0.4754,0.4741,0.4728,0.4705,0.469,0.4678,0.4659,0.4637,0.4619,0.4613,0.4606,0.4608,0.4601,0.4602,0.4601,0.4601,0.4605,0.4607,0.4607,0.4601,0.4601,0.4601]}]]